Temperature
8 8 8 8 9 9 9 9 9 9 9 9 9 9 10 10 10 10 10 10 11 11 11 11 11 11 11 11 11 12 12 12 12 12 12 12 12 12 12 11 11 11 11
7 7 7 7 8 8 8 8 8 8 8 9 9 9 9 9 9 9 9 10 10 10 10 11 11 11 11 11 11 11 11 11 11 11 11 11 11 11 11 11 11 11 11
6 6 6 7 7 7 7 7 7 7 7 8 8 8 8 8 9 9 9 9 9 9 10 10 10 10 10 10 10 11 11 11 11 11 11 11 11 11 11 11 11 11 11
5 6 6 6 6 6 6 6 6 7 7 7 7 7 7 8 8 8 8 8 9 9 9 9 10 10 10 10 10 10 10 10 10 10 10 11 10 11 11 11 11 11 10
5 5 5 5 5 5 6 6 6 6 6 6 6 6 7 7 7 8 8 8 8 8 8 9 9 9 9 9 10 10 10 10 10 10 10 10 10 10 10 10 10 10 10
4 4 4 4 4 4 5 5 5 5 5 5 5 6 6 6 7 7 7 7 8 8 8 8 8 8 9 9 9 9 9 9 9 10 10 10 10 10 10 10 10 10 10
3 3 3 3 3 3 3 4 4 4 4 4 5 5 5 5 6 6 6 6 7 7 7 7 7 8 8 8 8 9 9 9 9 9 9 9 9 9 9 9 9 9 9
2 2 2 2 2 3 3 3 3 3 3 3 3 3 4 5 5 5 5 6 6 6 6 6 7 7 7 7 8 8 8 8 8 9 9 9 9 9 9 9 9 9 9
1 1 1 2 2 2 2 2 2 2 2 2 2 2 3 4 4 4 4 5 5 5 5 6 6 6 6 6 7 7 8 8 8 8 8 8 8 8 8 8 9 9 9
1 1 1 1 1 1 1 1 1 1 1 1 2 2 2 2 2 3 3 4 4 4 5 5 5 5 6 6 6 6 7 7 7 7 7 7 8 8 8 8 8 8 8
0 0 0 0 0 0 0 0 0 0 0 0 1 1 1 2 2 2 2 3 3 4 4 4 4 5 5 5 5 6 6 6 7 7 7 7 7 7 7 7 7 8 8
-1 -1 -1 -1 -1 -1 -1 -0 -0 -0 -0 -0 -0 0 0 1 1 1 2 2 2 3 3 3 3 4 4 4 5 5 5 6 6 6 6 6 6 7 7 7 7 7 7
-1 -1 -1 -1 -1 -1 -1 -1 -1 -1 -1 -1 -1 -0 -0 -0 0 1 1 1 1 2 2 2 3 3 3 3 4 4 5 5 5 5 5 5 6 6 6 6 6 7 7
-2 -2 -2 -2 -2 -2 -2 -2 -2 -2 -2 -2 -1 -1 -1 -1 -1 -0 0 0 0 1 1 2 2 2 2 2 3 3 4 4 5 5 5 5 5 5 6 6 6 6 6
-3 -3 -3 -3 -3 -3 -3 -3 -3 -2 -2 -2 -2 -2 -2 -1 -1 -1 -1 -0 -0 0 1 1 1 1 2 2 2 2 3 3 4 4 4 4 4 5 5 5 5 5 6
-3 -3 -3 -3 -3 -3 -3 -3 -3 -3 -3 -3 -3 -2 -2 -2 -2 -2 -1 -1 -1 -1 -0 0 0 1 1 1 1 2 2 2 3 3 4 4 4 4 4 4 5 5 5
-4 -4 -4 -4 -4 -4 -4 -4 -4 -4 -4 -3 -3 -3 -3 -3 -2 -2 -2 -2 -1 -1 -1 -1 -0 0 0 0 1 1 1 2 2 2 3 3 3 3 4 4 4 4 4
-5 -5 -5 -5 -5 -5 -4 -4 -4 -4 -4 -4 -4 -4 -3 -3 -3 -3 -3 -2 -2 -2 -1 -1 -1 -1 -0 -0 0 0 1 1 1 2 2 2 3 3 3 3 3 4 4
-5 -5 -5 -5 -5 -5 -5 -5 -5 -5 -5 -4 -4 -4 -4 -4 -4 -3 -3 -3 -3 -2 -2 -2 -1 -1 -1 -1 -1 -0 -0 0 0 1 1 1 2 2 3 3 3 3 3
-6 -6 -6 -6 -6 -6 -6 -5 -6 -6 -5 -5 -5 -5 -4 -4 -4 -4 -4 -3 -3 -3 -3 -2 -2 -2 -1 -1 -1 -1 -1 -1 -0 -0 0 1 1 1 2 2 2 2 3
-6 -6 -6 -6 -6 -6 -6 -6 -6 -6 -6 -6 -5 -5 -5 -5 -4 -4 -4 -4 -4 -3 -3 -3 -3 -2 -2 -2 -1 -1 -1 -1 -1 -1 -1 -0 0 0 1 1 1 2 2
-7 -7 -7 -7 -7 -7 -7 -7 -6 -6 -6 -6 -6 -5 -5 -5 -5 -4 -4 -4 -4 -4 -4 -4 -3 -3 -2 -2 -2 -2 -2 -2 -2 -1 -1 -1 -1 -1 -0 0 1 1 1
-7 -7 -7 -7 -7 -7 -7 -7 -7 -7 -6 -6 -6 -6 -6 -5 -5 -5 -5 -5 -4 -4 -4 -4 -4 -3 -3 -3 -3 -3 -2 -2 -2 -2 -2 -2 -2 -1 -1 -1 0 0 1
-8 -8 -8 -8 -8 -8 -8 -7 -7 -7 -7 -7 -7 -6 -6 -6 -6 -6 -6 -5 -5 -4 -4 -4 -4 -4 -3 -3 -3 -3 -3 -3 -3 -3 -3 -3 -2 -2 -2 -1 -1 -0 0
-9 -8 -9 -9 -8 -8 -8 -8 -8 -7 -7 -7 -7 -7 -7 -6 -6 -6 -6 -6 -5 -5 -5 -4 -4 -4 -4 -4 -4 -4 -4 -3 -3 -3 -3 -3 -3 -3 -2 -2 -1 -1 -1
-9 -9 -9 -9 -9 -9 -8 -8 -8 -8 -8 -7 -7 -7 -7 -7 -6 -6 -6 -6 -6 -5 -5 -5 -5 -5 -4 -4 -4 -4 -4 -4 -4 -4 -3 -3 -3 -3 -3 -3 -2 -2 -1
Wind_Speed
6 6 6 6 6 6 5 5 5 4 4 4 3 3 3 2 3 3 2 2 3 3 3 3 2 2 1 2 3 4 4 5 6 6 6 7 7 8 7 7 7 7 7
6 6 6 5 5 6 6 5 5 4 4 4 4 4 3 3 3 3 3 2 2 3 3 3 3 3 3 3 2 3 3 4 6 6 6 7 7 7 7 7 8 8 7
6 5 5 5 5 6 6 5 5 5 4 4 4 4 4 4 3 3 4 3 3 2 3 3 3 3 3 3 2 3 3 3 4 6 7 6 7 8 8 8 8 7 7
7 5 5 5 6 5 4 4 4 4 4 4 4 4 4 4 4 4 4 4 3 3 3 3 3 4 4 4 3 3 4 4 4 4 6 7 7 8 8 8 8 7 7
8 6 5 5 6 5 4 4 3 3 4 4 4 4 4 4 4 4 4 4 4 4 4 3 3 4 4 4 4 4 5 5 5 6 6 6 7 8 9 9 8 8 8
9 7 5 5 5 4 4 4 4 4 4 4 4 4 4 4 4 4 4 4 3 4 4 4 4 3 4 4 5 5 6 6 6 7 8 8 8 7 10 10 9 9 8
9 8 6 5 5 4 5 5 4 4 4 3 3 4 4 5 4 4 4 3 3 3 4 4 4 4 4 4 5 5 6 7 7 7 8 9 10 9 8 10 10 9 9
8 7 7 5 5 4 5 5 4 3 3 3 3 3 3 4 3 4 4 4 4 3 4 4 5 5 5 4 4 5 6 7 7 8 8 10 10 11 10 10 10 11 10
8 8 8 7 6 5 4 5 5 5 4 4 3 3 3 3 3 4 5 4 4 4 4 5 6 6 6 5 5 5 6 7 8 9 10 10 10 11 12 11 11 11 11
8 8 8 7 6 5 5 5 5 5 5 4 3 4 5 4 4 3 4 4 5 5 5 5 6 7 7 6 5 5 5 6 8 9 10 11 11 11 12 11 12 11 11
7 8 8 8 6 5 6 6 6 5 5 6 5 4 5 5 6 6 6 6 5 5 5 6 6 6 7 7 6 5 5 7 8 9 10 10 11 11 11 10 11 11 12
6 8 8 8 7 6 6 6 6 6 6 6 6 5 5 5 5 6 7 7 7 6 6 6 6 6 6 7 6 5 6 8 9 10 11 11 11 11 11 11 11 11 11
6 7 8 8 7 7 8 7 7 7 7 7 7 6 6 6 6 7 7 7 8 7 6 6 6 6 7 6 6 6 7 8 9 10 11 11 11 11 11 11 11 11 12
6 8 8 8 9 9 8 8 7 7 7 7 8 8 6 6 6 7 7 7 7 7 7 7 5 6 6 6 6 7 7 8 9 10 11 11 11 11 11 11 11 10 11
7 8 8 8 9 9 9 8 7 8 8 7 8 8 7 6 6 7 7 8 8 8 9 7 5 6 6 7 7 8 8 9 9 10 10 10 10 9 10 11 10 10 9
8 9 8 8 9 9 9 8 8 8 8 8 7 8 8 6 6 6 6 7 8 9 9 7 7 7 7 7 8 9 9 10 10 10 10 9 9 10 11 11 11 11 11
8 8 8 8 8 9 9 8 8 9 9 9 8 9 9 9 7 6 7 7 8 8 10 9 7 7 9 9 8 8 9 9 9 9 10 10 10 10 11 12 12 12 12
8 8 9 8 8 9 9 9 9 9 9 10 10 10 10 8 9 8 7 8 8 9 10 11 9 8 9 9 8 8 7 8 8 8 10 11 11 11 10 11 12 12 13
8 8 8 9 9 9 9 9 9 10 10 10 11 11 11 10 10 9 9 9 8 8 9 9 9 8 7 7 8 7 8 7 7 8 9 11 11 11 11 11 11 12 13
9 9 9 9 9 10 9 10 10 10 11 11 11 11 11 11 11 11 9 10 9 9 9 8 8 8 7 7 7 6 6 6 6 6 7 8 9 10 11 11 12 12 12
9 9 9 9 10 9 9 10 11 11 11 12 12 11 11 12 13 12 10 10 9 8 8 8 8 8 8 7 7 6 7 6 6 6 6 6 6 7 8 10 11 12 12
9 9 9 10 10 9 12 15 14 11 11 12 12 12 12 12 13 15 16 15 13 11 10 9 9 9 9 9 7 7 6 7 7 5 6 6 6 7 7 8 9 10 11
9 9 10 10 10 12 15 16 16 12 12 11 11 11 10 10 13 12 13 15 15 16 15 12 12 12 11 9 9 9 9 8 8 6 6 7 6 7 7 8 10 10 11
9 9 10 10 11 12 15 16 17 13 11 11 11 12 12 12 11 12 11 11 12 13 14 13 12 12 11 10 10 9 9 8 8 7 7 8 7 7 7 7 9 10 11
9 9 10 10 11 12 15 16 15 10 10 11 11 11 12 12 14 15 12 12 12 11 12 14 15 14 14 14 11 7 8 7 8 8 6 6 7 6 6 7 7 10 11
9 9 10 10 11 11 14 15 15 9 10 10 10 11 13 13 14 15 11 11 12 11 10 9 11 12 12 12 13 10 9 8 7 7 6 6 6 5 5 5 6 6 7
Wind_Direction
3 357 356 354 351 349 348 344 336 333 327 321 312 310 314 316 313 308 326 15 338 327 310 300 300 266 228 211 195 187 184 189 188 182 179 177 178 177 176 175 170 163 158
359 353 349 347 347 344 340 334 336 326 317 312 303 297 293 293 289 291 292 311 325 312 306 296 289 287 253 231 208 194 195 199 197 192 186 186 185 183 179 180 179 174 168
350 345 341 341 341 337 336 335 332 329 314 304 297 293 289 281 272 276 279 282 286 291 295 291 287 285 281 251 234 231 218 213 208 206 200 190 190 190 187 181 180 180 177
348 342 338 340 336 333 332 332 330 325 312 300 296 291 286 280 270 269 271 274 277 280 292 299 289 282 278 269 254 256 247 234 224 219 212 200 195 194 192 187 182 181 178
350 340 336 337 336 329 328 326 320 315 307 299 290 291 285 273 267 265 262 270 272 274 280 289 281 276 272 270 260 254 254 249 239 230 222 205 205 204 199 192 185 183 180
353 347 335 336 336 330 326 321 313 314 301 300 292 287 280 271 265 259 259 263 267 273 278 280 275 263 258 264 266 258 253 252 249 238 228 217 212 211 205 196 189 189 188
356 352 345 336 334 327 321 318 313 311 313 314 300 291 277 260 257 255 258 258 260 268 279 284 281 278 265 258 260 265 263 256 251 245 233 223 218 212 210 203 199 199 200
354 349 346 338 331 324 318 319 312 305 306 312 297 287 275 260 244 253 259 258 261 274 284 287 283 279 274 267 263 261 265 264 257 248 240 228 221 215 217 211 201 202 202
351 348 342 336 331 326 313 315 308 303 294 292 280 278 269 258 286 249 250 251 259 269 277 280 279 279 272 267 267 257 261 261 259 251 244 237 228 222 219 219 208 207 208
348 345 340 335 327 323 316 311 307 298 289 281 283 274 279 285 267 257 246 254 267 270 272 278 279 274 269 263 261 270 267 264 259 255 249 244 236 230 226 228 218 215 215
344 343 338 332 327 322 317 312 303 299 290 281 278 280 278 277 269 259 263 264 268 268 272 272 272 268 265 262 257 257 260 263 261 258 252 248 242 236 232 236 231 224 221
334 337 334 330 323 318 314 308 302 295 288 283 279 269 268 267 267 268 268 269 272 275 273 268 265 266 267 264 261 270 265 264 264 260 254 249 245 242 239 238 238 228 225
323 327 328 323 320 315 311 306 297 290 286 283 279 276 271 268 268 269 270 271 274 278 273 264 260 266 268 263 267 271 264 262 263 261 257 254 250 246 243 242 240 237 230
312 316 316 315 314 313 308 304 296 290 285 282 279 277 275 274 270 263 265 271 271 270 265 264 267 263 266 267 273 275 267 262 264 263 259 256 254 250 246 243 243 243 241
313 312 312 311 311 312 308 302 293 292 287 281 279 276 272 272 272 271 264 262 262 267 266 266 265 262 269 269 271 268 269 268 267 264 262 258 254 249 246 242 239 238 241
312 310 307 307 308 309 308 302 295 293 290 284 280 276 273 272 269 269 269 266 261 261 266 265 268 268 270 273 270 269 267 266 259 255 255 254 251 246 242 240 239 238 236
308 307 305 303 304 303 303 297 294 294 290 288 283 279 277 276 272 269 267 266 262 256 261 268 268 265 262 265 268 266 265 262 254 246 248 252 250 249 242 237 235 234 234
306 305 304 301 301 301 302 298 293 291 288 287 286 282 277 275 270 269 266 265 265 262 258 263 265 263 261 259 261 261 267 263 255 247 245 247 247 247 244 236 233 230 230
304 304 303 301 300 299 298 296 290 287 285 284 282 281 278 275 272 269 266 265 266 267 264 258 260 261 262 255 258 261 262 261 258 251 244 241 242 244 244 239 233 232 230
301 302 301 300 299 297 294 293 289 286 283 281 279 277 275 272 269 267 265 262 261 263 262 257 255 256 256 254 250 252 259 260 260 259 252 246 241 239 239 237 233 231 230
300 300 299 298 297 296 291 293 291 286 284 282 279 276 273 273 272 268 263 260 257 255 258 256 253 255 252 246 245 249 254 263 267 261 258 254 244 237 236 236 235 229 228
299 299 297 297 296 294 296 298 296 290 287 283 282 281 278 274 274 273 268 265 260 256 255 256 254 252 254 253 250 244 246 255 263 253 254 261 255 249 246 240 238 234 230
298 297 296 295 295 295 299 300 300 297 290 285 283 282 280 277 276 272 270 266 262 257 253 254 256 253 252 251 250 250 247 252 258 259 263 264 259 255 253 246 237 234 233
296 296 296 296 296 296 300 302 304 300 291 285 282 279 278 278 275 273 271 266 262 257 252 251 254 255 255 253 249 250 257 262 266 256 250 258 259 259 260 252 240 234 235
293 295 296 296 296 299 302 303 305 298 293 290 285 281 278 277 277 274 270 266 265 262 259 253 254 257 257 257 251 248 244 245 255 256 249 250 257 261 263 258 246 235 235
291 295 295 295 295 296 301 305 306 299 295 293 289 285 281 279 277 273 267 263 262 263 262 260 253 254 253 250 243 237 238 241 252 259 247 242 247 252 261 258 253 242 233
Height
1534 1533 1533 1532 1532 1531 1530 1530 1530 1529 1529 1530 1529 1529 1530 1530 1530 1530 1530 1530 1531 1531 1531 1532 1532 1532 1533 1534 1535 1536 1536 1537 1538 1539 1540 1541 1542 1542 1543 1544 1545 1545 1546
1532 1531 1531 1530 1529 1529 1528 1528 1527 1527 1526 1527 1527 1527 1527 1527 1527 1527 1527 1528 1528 1528 1529 1529 1529 1530 1531 1531 1532 1533 1534 1535 1536 1537 1537 1539 1539 1540 1541 1542 1543 1544 1545
1530 1529 1529 1528 1527 1526 1526 1525 1525 1524 1524 1524 1524 1524 1524 1524 1524 1524 1525 1525 1525 1525 1526 1526 1526 1527 1528 1529 1529 1530 1531 1532 1533 1534 1535 1536 1537 1538 1539 1540 1541 1542 1543
1528 1527 1526 1525 1524 1524 1523 1522 1522 1521 1521 1520 1520 1520 1520 1520 1520 1521 1521 1522 1522 1522 1522 1523 1523 1524 1525 1525 1526 1527 1528 1529 1530 1531 1532 1533 1534 1535 1536 1537 1539 1540 1541
1526 1525 1523 1522 1521 1521 1520 1519 1519 1518 1517 1517 1517 1516 1516 1516 1517 1517 1518 1518 1518 1519 1519 1519 1520 1520 1521 1522 1523 1523 1524 1526 1527 1528 1529 1529 1531 1532 1533 1534 1536 1537 1538
1523 1522 1521 1520 1519 1518 1517 1516 1516 1515 1514 1513 1513 1513 1513 1513 1513 1513 1514 1514 1514 1515 1515 1515 1516 1516 1517 1518 1518 1519 1521 1522 1523 1524 1525 1526 1527 1528 1530 1531 1532 1534 1535
1521 1520 1518 1517 1516 1515 1514 1513 1512 1511 1511 1510 1510 1509 1509 1509 1509 1509 1510 1510 1511 1511 1511 1511 1512 1512 1513 1513 1514 1515 1516 1517 1518 1520 1521 1522 1523 1525 1526 1527 1529 1530 1532
1518 1517 1516 1514 1513 1512 1511 1510 1509 1508 1507 1507 1507 1507 1506 1507 1505 1505 1506 1506 1507 1507 1507 1508 1508 1508 1508 1509 1509 1510 1511 1513 1514 1515 1517 1518 1519 1521 1522 1523 1524 1526 1528
1515 1514 1513 1511 1510 1508 1508 1507 1506 1505 1504 1504 1505 1506 1505 1503 1502 1501 1502 1502 1503 1503 1503 1504 1504 1504 1504 1504 1505 1506 1507 1508 1509 1511 1512 1514 1515 1516 1518 1519 1520 1522 1524
1512 1511 1510 1508 1507 1505 1504 1504 1503 1502 1501 1501 1501 1502 1502 1501 1500 1497 1498 1498 1498 1499 1499 1499 1499 1500 1500 1500 1500 1501 1502 1503 1504 1506 1507 1509 1511 1512 1514 1515 1516 1517 1519
1510 1508 1507 1505 1504 1502 1501 1500 1499 1499 1498 1497 1497 1497 1497 1496 1496 1495 1493 1494 1494 1494 1494 1494 1495 1495 1495 1495 1496 1496 1497 1498 1500 1501 1502 1504 1505 1507 1509 1510 1511 1513 1514
1507 1505 1504 1502 1500 1499 1497 1496 1495 1494 1494 1493 1492 1492 1492 1492 1492 1492 1490 1489 1489 1489 1489 1490 1490 1490 1490 1490 1491 1491 1492 1493 1494 1495 1497 1498 1500 1502 1503 1505 1506 1508 1509
1503 1502 1500 1498 1497 1495 1493 1492 1491 1490 1490 1489 1488 1487 1488 1488 1488 1488 1487 1485 1485 1484 1484 1484 1485 1485 1485 1485 1486 1486 1487 1488 1489 1490 1491 1493 1494 1496 1497 1500 1501 1502 1504
1500 1498 1496 1494 1493 1491 1489 1488 1487 1486 1485 1484 1483 1483 1482 1482 1483 1483 1482 1482 1480 1479 1479 1479 1480 1480 1480 1480 1480 1481 1481 1482 1483 1484 1486 1487 1488 1490 1491 1494 1495 1496 1498
1496 1494 1492 1490 1489 1487 1485 1484 1482 1481 1480 1479 1479 1478 1478 1477 1477 1477 1477 1477 1478 1475 1474 1474 1475 1475 1475 1475 1475 1475 1476 1476 1477 1478 1480 1481 1482 1484 1485 1487 1489 1491 1492
1492 1490 1488 1486 1484 1483 1481 1480 1478 1477 1475 1474 1474 1473 1472 1472 1471 1471 1471 1471 1471 1471 1469 1468 1469 1470 1470 1469 1469 1470 1470 1470 1471 1472 1473 1475 1476 1478 1479 1481 1483 1484 1486
1488 1486 1484 1482 1480 1478 1477 1475 1474 1472 1471 1469 1469 1468 1467 1466 1465 1465 1465 1465 1465 1465 1464 1463 1464 1464 1464 1464 1464 1464 1464 1464 1465 1466 1467 1468 1470 1471 1473 1474 1476 1478 1480
1484 1482 1480 1478 1476 1474 1472 1471 1469 1467 1466 1464 1463 1462 1461 1461 1460 1460 1460 1459 1459 1459 1459 1457 1457 1458 1458 1458 1458 1458 1459 1459 1459 1460 1460 1462 1463 1464 1465 1467 1469 1471 1473
1480 1478 1475 1473 1471 1470 1468 1466 1464 1462 1461 1459 1458 1457 1456 1455 1454 1454 1454 1453 1453 1453 1453 1452 1451 1452 1452 1453 1453 1453 1453 1453 1453 1454 1454 1455 1456 1457 1458 1460 1462 1464 1466
1475 1473 1471 1469 1467 1465 1463 1461 1459 1457 1456 1454 1453 1452 1450 1450 1449 1448 1448 1447 1447 1447 1447 1446 1445 1446 1446 1447 1447 1447 1447 1447 1447 1448 1448 1449 1449 1450 1451 1453 1455 1456 1458
1471 1468 1466 1464 1462 1460 1458 1456 1454 1452 1450 1448 1447 1446 1445 1444 1443 1442 1442 1441 1441 1441 1441 1440 1439 1440 1440 1441 1441 1441 1441 1441 1441 1442 1442 1442 1443 1443 1444 1446 1447 1449 1451
1466 1464 1461 1459 1457 1455 1453 1451 1450 1447 1445 1443 1441 1439 1438 1437 1436 1435 1435 1435 1435 1435 1434 1434 1433 1433 1433 1435 1435 1435 1435 1436 1435 1437 1437 1436 1437 1436 1437 1438 1439 1441 1443
1461 1459 1456 1454 1452 1450 1448 1446 1444 1442 1439 1437 1435 1433 1432 1430 1430 1429 1428 1427 1427 1427 1428 1428 1427 1427 1428 1428 1429 1429 1429 1429 1429 1430 1431 1429 1430 1430 1431 1431 1432 1434 1436
1456 1454 1451 1449 1446 1444 1442 1441 1439 1436 1434 1431 1429 1427 1426 1424 1423 1422 1421 1420 1420 1420 1421 1421 1421 1421 1422 1422 1423 1424 1423 1423 1423 1424 1425 1424 1423 1424 1424 1424 1425 1427 1429
1452 1449 1447 1444 1441 1439 1437 1435 1433 1431 1428 1425 1423 1421 1420 1418 1416 1416 1415 1414 1413 1413 1414 1414 1414 1414 1415 1416 1417 1418 1417 1417 1416 1416 1417 1417 1417 1417 1417 1417 1419 1420 1422
1447 1445 1442 1440 1437 1434 1432 1430 1428 1425 1422 1420 1417 1415 1413 1412 1410 1409 1409 1408 1407 1406 1407 1407 1407 1407 1408 1408 1409 1410 1410 1411 1409 1409 1410 1411 1411 1412 1411 1411 1412 1413 1414